| time (UTC) | temp F | wind direction | speed MPH | gust MPH | rain 1hr in | rain 24hr in | rain mn in | humidity % | barometer mb |
| 20260906103623 | 71 | 28 | 0.0 | 1.0 | 0.00 | 0.00 | 0.00 | 99 | 1012.7 |
| 20260906103119 | 71 | 16 | 1.0 | 1.0 | 0.00 | 0.00 | 0.00 | 99 | 1012.7 |
| 20260906102614 | 71 | 33 | 0.0 | 1.0 | 0.00 | 0.00 | 0.00 | 99 | 1012.6 |
| 20260906102109 | 71 | 113 | 0.0 | 0.0 | 0.00 | 0.00 | 0.00 | 99 | 1012.5 |
| 20260906101603 | 71 | 72 | 0.0 | 0.0 | 0.00 | 0.00 | 0.00 | 99 | 1012.6 |
| 20260906101103 | 71 | 43 | 0.0 | 1.0 | 0.00 | 0.00 | 0.00 | 99 | 1012.6 |
| 20260906100558 | 71 | 25 | 0.0 | 1.0 | 0.00 | 0.00 | 0.00 | 99 | 1012.4 |
| 20260906100053 | 71 | 26 | 1.0 | 1.0 | 0.00 | 0.00 | 0.00 | 99 | 1012.4 |
| 20260906095553 | 71 | 36 | 0.0 | 0.0 | 0.00 | 0.00 | 0.00 | 99 | 1012.3 |
| 20260906095049 | 71 | 2 | 0.0 | 1.0 | 0.00 | 0.00 | 0.00 | 99 | 1011.9 |
| 20260906094547 | 71 | 26 | 0.0 | 2.0 | 0.00 | 0.00 | 0.00 | 99 | 1012.2 |
| 20260906094044 | 71 | 114 | 1.0 | 0.0 | 0.00 | 0.00 | 0.00 | 99 | 1012.3 |
| 20260906093539 | 71 | 12 | 0.0 | 0.0 | 0.00 | 0.00 | 0.00 | 99 | 1012.1 |
| 20260906093034 | 71 | 20 | 0.0 | 0.0 | 0.00 | 0.00 | 0.00 | 99 | 1012.0 |
| 20260906092529 | 71 | 16 | 0.0 | 1.0 | 0.00 | 0.00 | 0.00 | 99 | 1012.1 |
| 20260906092024 | 71 | 4 | 0.0 | 0.0 | 0.00 | 0.00 | 0.00 | 99 | 1012.1 |
| 20260906091520 | 71 | 357 | 0.0 | 1.0 | 0.00 | 0.00 | 0.00 | 99 | 1012.1 |
| 20260906091016 | 71 | 22 | 0.0 | 1.0 | 0.00 | 0.00 | 0.00 | 99 | 1012.1 |
| 20260906090516 | 71 | 54 | 1.0 | 1.0 | 0.00 | 0.00 | 0.00 | 99 | 1012.1 |
| 20260906090011 | 71 | 24 | 0.0 | 0.0 | 0.00 | 0.00 | 0.00 | 99 | 1012.3 |
| 20260906085509 | 71 | 4 | 0.0 | 0.0 | 0.00 | 0.00 | 0.00 | 99 | 1012.2 |
| 20260906085004 | 71 | 8 | 0.0 | 1.0 | 0.00 | 0.00 | 0.00 | 99 | 1012.0 |
| 20260906084459 | 71 | 5 | 0.0 | 0.0 | 0.00 | 0.00 | 0.00 | 99 | 1012.1 |
| 20260906083957 | 71 | 2 | 0.0 | 0.0 | 0.00 | 0.00 | 0.00 | 99 | 1011.9 |
| 20260906083454 | 71 | 9 | 0.0 | 0.0 | 0.00 | 0.00 | 0.00 | 99 | 1011.9 |
| 20260906082952 | 71 | 13 | 0.0 | 1.0 | 0.00 | 0.00 | 0.00 | 99 | 1012.0 |
| 20260906082448 | 71 | 12 | 0.0 | 0.0 | 0.00 | 0.00 | 0.00 | 99 | 1011.8 |
| 20260906081943 | 71 | 57 | 0.0 | 0.0 | 0.00 | 0.00 | 0.00 | 99 | 1012.1 |
| 20260906081438 | 71 | 37 | 0.0 | 1.0 | 0.00 | 0.00 | 0.00 | 99 | 1012.1 |
| 20260906080934 | 71 | 11 | 0.0 | 0.0 | 0.00 | 0.00 | 0.00 | 99 | 1012.0 |
| 20260906080431 | 71 | 11 | 0.0 | 1.0 | 0.00 | 0.00 | 0.00 | 99 | 1012.1 |
| 20260906075931 | 71 | 9 | 0.0 | 1.0 | 0.00 | 0.00 | 0.00 | 99 | 1012.0 |
| 20260906075426 | 71 | 9 | 0.0 | 0.0 | 0.00 | 0.00 | 0.00 | 99 | 1012.0 |
| 20260906074920 | 72 | 3 | 0.0 | 0.0 | 0.00 | 0.00 | 0.00 | 99 | 1012.0 |
| 20260906074415 | 72 | 28 | 0.0 | 0.0 | 0.00 | 0.00 | 0.00 | 99 | 1012.0 |
| 20260906073914 | 72 | 26 | 0.0 | 0.0 | 0.00 | 0.00 | 0.00 | 99 | 1011.9 |
| 20260906073409 | 72 | 36 | 0.0 | 0.0 | 0.00 | 0.00 | 0.00 | 99 | 1012.0 |
| 20260906072905 | 72 | 72 | 1.0 | 1.0 | 0.00 | 0.00 | 0.00 | 99 | 1012.0 |
| 20260906072401 | 72 | 357 | 0.0 | 1.0 | 0.00 | 0.00 | 0.00 | 99 | 1012.1 |
| 20260906071856 | 72 | 8 | 0.0 | 1.0 | 0.00 | 0.00 | 0.00 | 99 | 1012.2 |
| 20260906071351 | 72 | 0 | 0.0 | 1.0 | 0.00 | 0.00 | 0.00 | 99 | 1012.2 |
| 20260906070847 | 72 | 6 | 0.0 | 0.0 | 0.00 | 0.00 | 0.00 | 99 | 1012.1 |
| 20260906070343 | 72 | 9 | 0.0 | 0.0 | 0.00 | 0.00 | 0.00 | 99 | 1011.8 |
| 20260906065838 | 72 | 2 | 0.0 | 0.0 | 0.00 | 0.00 | 0.00 | 99 | 1012.1 |
| 20260906065333 | 72 | 41 | 0.0 | 0.0 | 0.00 | 0.00 | 0.00 | 99 | 1011.9 |
| 20260906064829 | 72 | 73 | 0.0 | 0.0 | 0.00 | 0.00 | 0.00 | 99 | 1012.0 |
| 20260906064324 | 72 | 54 | 0.0 | 0.0 | 0.00 | 0.00 | 0.00 | 99 | 1012.0 |
| 20260906063819 | 72 | 35 | 0.0 | 0.0 | 0.00 | 0.00 | 0.00 | 99 | 1012.2 |
| 20260906063315 | 72 | 24 | 0.0 | 0.0 | 0.00 | 0.00 | 0.00 | 99 | 1012.0 |
| 20260906062810 | 72 | 6 | 0.0 | 0.0 | 0.00 | 0.00 | 0.00 | 99 | 1012.3 |
| 20260906062309 | 73 | 356 | 0.0 | 0.0 | 0.00 | 0.00 | 0.00 | 99 | 1012.5 |
| 20260906061804 | 73 | 359 | 1.0 | 1.0 | 0.00 | 0.00 | 0.00 | 99 | 1012.2 |
| 20260906061301 | 72 | 353 | 1.0 | 1.0 | 0.00 | 0.00 | 0.00 | 99 | 1012.3 |
| 20260906060755 | 72 | 359 | 0.0 | 0.0 | 0.00 | 0.00 | 0.00 | 99 | 1012.7 |
| 20260906060253 | 73 | 359 | 0.0 | 1.0 | 0.00 | 0.00 | 0.00 | 99 | 1012.4 |
| 20260906055749 | 73 | 354 | 0.0 | 0.0 | 0.00 | 0.00 | 0.00 | 99 | 1012.5 |
| 20260906055244 | 73 | 14 | 1.0 | 1.0 | 0.00 | 0.00 | 0.00 | 99 | 1012.5 |
| 20260906054739 | 73 | 85 | 1.0 | 1.0 | 0.00 | 0.00 | 0.00 | 98 | 1012.5 |
| 20260906054234 | 73 | 79 | 0.0 | 0.0 | 0.00 | 0.00 | 0.00 | 99 | 1012.3 |
| 20260906053731 | 73 | 13 | 0.0 | 0.0 | 0.00 | 0.00 | 0.00 | 99 | 1012.4 |
| 20260906053226 | 73 | 16 | 0.0 | 1.0 | 0.00 | 0.00 | 0.00 | 99 | 1012.6 |
| 20260906052721 | 74 | 12 | 1.0 | 0.0 | 0.00 | 0.00 | 0.00 | 99 | 1012.4 |
| 20260906052217 | 74 | 8 | 1.0 | 1.0 | 0.00 | 0.00 | 0.00 | 99 | 1012.5 |
| 20260906051714 | 74 | 106 | 0.0 | 1.0 | 0.00 | 0.00 | 0.00 | 98 | 1012.6 |
| 20260906051213 | 74 | 169 | 0.0 | 0.0 | 0.00 | 0.00 | 0.00 | 98 | 1012.5 |
| 20260906050709 | 74 | 200 | 1.0 | 1.0 | 0.00 | 0.00 | 0.00 | 98 | 1012.5 |
| 20260906050204 | 74 | 202 | 1.0 | 1.0 | 0.00 | 0.00 | 0.00 | 98 | 1012.6 |
| 20260906045702 | 74 | 265 | 5.0 | 6.0 | 0.00 | 0.00 | 0.00 | 98 | 1012.3 |
| 20260906045157 | 74 | 243 | 2.0 | 2.0 | 0.00 | 0.00 | 0.00 | 98 | 1012.4 |
| 20260906044653 | 74 | 8 | 0.0 | 0.0 | 0.00 | 0.00 | 0.00 | 97 | 1012.3 |
| 20260906044148 | 74 | 19 | 0.0 | 0.0 | 0.00 | 0.00 | 0.00 | 97 | 1012.3 |
| 20260906043645 | 74 | 62 | 0.0 | 0.0 | 0.00 | 0.00 | 0.00 | 97 | 1012.3 |
| 20260906043140 | 74 | 60 | 0.0 | 0.0 | 0.00 | 0.00 | 0.00 | 97 | 1011.9 |
| 20260906042639 | 74 | 29 | 0.0 | 0.0 | 0.00 | 0.00 | 0.00 | 97 | 1012.1 |
| 20260906042134 | 75 | 27 | 0.0 | 0.0 | 0.00 | 0.00 | 0.00 | 96 | 1011.9 |
| 20260906041629 | 75 | 55 | 0.0 | 1.0 | 0.00 | 0.00 | 0.00 | 96 | 1012.2 |
| 20260906041124 | 75 | 61 | 0.0 | 0.0 | 0.00 | 0.00 | 0.00 | 96 | 1012.0 |
| 20260906040620 | 75 | 67 | 0.0 | 1.0 | 0.00 | 0.00 | 0.00 | 96 | 1012.1 |
| 20260906040115 | 75 | 34 | 0.0 | 0.0 | 0.00 | 0.22 | 0.22 | 95 | 1012.0 |
| 20260906035610 | 75 | 79 | 0.0 | 1.0 | 0.00 | 0.22 | 0.22 | 95 | 1012.0 |
| 20260906035106 | 75 | 84 | 1.0 | 1.0 | 0.00 | 0.22 | 0.22 | 94 | 1011.9 |
| 20260906034606 | 75 | 68 | 0.0 | 1.0 | 0.00 | 0.22 | 0.22 | 94 | 1011.9 |
| 20260906034101 | 76 | 4 | 0.0 | 0.0 | 0.00 | 0.22 | 0.22 | 94 | 1012.0 |
| 20260906033556 | 76 | 355 | 0.0 | 0.0 | 0.00 | 0.22 | 0.22 | 93 | 1012.0 |
| 20260906033051 | 76 | 23 | 0.0 | 0.0 | 0.00 | 0.22 | 0.22 | 93 | 1011.9 |
| 20260906032548 | 77 | 22 | 0.0 | 0.0 | 0.00 | 0.22 | 0.22 | 92 | 1011.8 |
| 20260906032042 | 77 | 45 | 0.0 | 0.0 | 0.00 | 0.22 | 0.22 | 91 | 1011.9 |
| 20260906031538 | 77 | 58 | 0.0 | 1.0 | 0.00 | 0.22 | 0.22 | 91 | 1011.8 |
| 20260906031033 | 77 | 71 | 1.0 | 1.0 | 0.00 | 0.22 | 0.22 | 91 | 1011.6 |
| 20260906030532 | 77 | 74 | 0.0 | 1.0 | 0.00 | 0.22 | 0.22 | 91 | 1011.8 |
| 20260906030032 | 77 | 88 | 1.0 | 1.0 | 0.00 | 0.22 | 0.22 | 92 | 1011.8 |
| 20260906025531 | 78 | 69 | 1.0 | 1.0 | 0.00 | 0.22 | 0.22 | 91 | 1011.7 |
| 20260906025024 | 78 | 61 | 0.0 | 1.0 | 0.00 | 0.22 | 0.22 | 91 | 1011.9 |
| 20260906024519 | 78 | 54 | 1.0 | 2.0 | 0.00 | 0.22 | 0.22 | 92 | 1011.6 |
| 20260906024014 | 78 | 82 | 1.0 | 3.0 | 0.00 | 0.22 | 0.22 | 93 | 1011.7 |
| 20260906023510 | 78 | 79 | 0.0 | 0.0 | 0.00 | 0.22 | 0.22 | 95 | 1011.7 |
| 20260906023005 | 77 | 49 | 1.0 | 3.0 | 0.00 | 0.22 | 0.22 | 96 | 1011.8 |
| 20260906022500 | 77 | 35 | 0.0 | 1.0 | 0.00 | 0.22 | 0.22 | 95 | 1011.7 |
| 20260906021955 | 77 | 359 | 1.0 | 1.0 | 0.00 | 0.22 | 0.22 | 95 | 1011.6 |
| 20260906021450 | 77 | 356 | 0.0 | 1.0 | 0.00 | 0.22 | 0.22 | 94 | 1011.4 |
| 20260906020950 | 77 | 344 | 1.0 | 1.0 | 0.00 | 0.22 | 0.22 | 95 | 1011.6 |
| 20260906020439 | 78 | 345 | 3.0 | 2.0 | 0.00 | 0.22 | 0.22 | 94 | 1011.4 |
| 20260906015939 | 78 | 358 | 1.0 | 1.0 | 0.00 | 0.22 | 0.22 | 94 | 1011.3 |
| 20260906015438 | 78 | 358 | 0.0 | 1.0 | 0.00 | 0.22 | 0.22 | 94 | 1011.5 |
| 20260906014933 | 78 | 359 | 1.0 | 0.0 | 0.00 | 0.22 | 0.22 | 94 | 1011.3 |
| 20260906014433 | 78 | 7 | 0.0 | 0.0 | 0.00 | 0.22 | 0.22 | 94 | 1011.3 |
| 20260906013929 | 78 | 18 | 0.0 | 0.0 | 0.00 | 0.22 | 0.22 | 93 | 1011.4 |
| 20260906013424 | 79 | 58 | 0.0 | 1.0 | 0.00 | 0.22 | 0.22 | 92 | 1011.5 |
| 20260906012919 | 80 | 3 | 0.0 | 0.0 | 0.00 | 0.22 | 0.22 | 87 | 1011.1 |
| 20260906012414 | 81 | 352 | 2.0 | 2.0 | 0.00 | 0.22 | 0.22 | 86 | 1011.1 |
| 20260906011913 | 81 | 357 | 2.0 | 2.0 | 0.00 | 0.22 | 0.22 | 86 | 1010.9 |
| 20260906011408 | 82 | 351 | 0.0 | 1.0 | 0.00 | 0.22 | 0.22 | 84 | 1011.1 |
| 20260906010858 | 82 | 258 | 2.0 | 2.0 | 0.00 | 0.22 | 0.22 | 85 | 1010.7 |
| 20260906010354 | 81 | 276 | 3.0 | 3.0 | 0.00 | 0.22 | 0.22 | 88 | 1011.0 |
| 20260906005850 | 81 | 343 | 2.0 | 2.0 | 0.00 | 0.22 | 0.22 | 89 | 1010.8 |
| 20260906005349 | 82 | 348 | 1.0 | 1.0 | 0.00 | 0.22 | 0.22 | 86 | 1010.8 |
| 20260906004848 | 81 | 254 | 3.0 | 3.0 | 0.00 | 0.22 | 0.22 | 86 | 1010.7 |
| 20260906004347 | 82 | 340 | 1.0 | 2.0 | 0.00 | 0.22 | 0.22 | 86 | 1010.5 |
| 20260906003843 | 83 | 349 | 1.0 | 1.0 | 0.00 | 0.22 | 0.22 | 84 | 1010.6 |
| 20260906003338 | 82 | 332 | 0.0 | 0.0 | 0.00 | 0.22 | 0.22 | 83 | 1010.7 |
| 20260906002833 | 82 | 356 | 0.0 | 0.0 | 0.00 | 0.22 | 0.22 | 85 | 1010.6 |
| 20260906002333 | 83 | 7 | 0.0 | 0.0 | 0.00 | 0.22 | 0.22 | 84 | 1010.6 |
| 20260906001829 | 84 | 358 | 0.0 | 0.0 | 0.00 | 0.22 | 0.22 | 84 | 1010.8 |
| 20260906001324 | 84 | 342 | 0.0 | 1.0 | 0.00 | 0.22 | 0.22 | 83 | 1010.9 |
| 20260906000819 | 84 | 312 | 1.0 | 1.0 | 0.00 | 0.22 | 0.22 | 83 | 1010.8 |
| 20260906000314 | 84 | 349 | 0.0 | 0.0 | 0.00 | 0.22 | 0.22 | 82 | 1010.8 |
| 20260905235808 | 84 | 11 | 0.0 | 0.0 | 0.00 | 0.22 | 0.22 | 83 | 1011.0 |
| 20260905235306 | 85 | 12 | 0.0 | 0.0 | 0.00 | 0.22 | 0.22 | 81 | 1011.1 |
| 20260905234758 | 85 | 7 | 0.0 | 0.0 | 0.00 | 0.22 | 0.22 | 81 | 1011.1 |
| 20260905234253 | 86 | 7 | 0.0 | 0.0 | 0.00 | 0.22 | 0.22 | 80 | 1010.9 |
| 20260905233748 | 87 | 9 | 0.0 | 0.0 | 0.00 | 0.22 | 0.22 | 76 | 1011.1 |
| 20260905233247 | 87 | 7 | 0.0 | 0.0 | 0.00 | 0.22 | 0.22 | 75 | 1011.3 |
| 20260905232742 | 87 | 9 | 0.0 | 0.0 | 0.00 | 0.22 | 0.22 | 76 | 1011.2 |
| 20260905232238 | 87 | 8 | 0.0 | 0.0 | 0.00 | 0.22 | 0.22 | 76 | 1011.4 |
| 20260905231734 | 88 | 4 | 0.0 | 0.0 | 0.00 | 0.22 | 0.22 | 78 | 1011.4 |
| 20260905231229 | 89 | 12 | 0.0 | 0.0 | 0.00 | 0.22 | 0.22 | 75 | 1011.3 |
| 20260905230725 | 89 | 13 | 0.0 | 0.0 | 0.00 | 0.22 | 0.22 | 73 | 1011.2 |
| 20260905230222 | 89 | 31 | 0.0 | 0.0 | 0.00 | 0.22 | 0.22 | 72 | 1011.1 |
| 20260905225722 | 90 | 56 | 0.0 | 0.0 | 0.00 | 0.22 | 0.22 | 70 | 1011.1 |
| 20260905225217 | 90 | 10 | 0.0 | 0.0 | 0.00 | 0.22 | 0.22 | 69 | 1011.1 |
| 20260905224716 | 90 | 8 | 0.0 | 0.0 | 0.00 | 0.22 | 0.22 | 70 | 1011.1 |
| 20260905224212 | 90 | 1 | 0.0 | 0.0 | 0.00 | 0.22 | 0.22 | 69 | 1011.0 |
| 20260905223708 | 90 | 19 | 0.0 | 0.0 | 0.00 | 0.22 | 0.22 | 70 | 1010.9 |
| 20260905223205 | 90 | 7 | 0.0 | 1.0 | 0.00 | 0.22 | 0.22 | 70 | 1011.0 |
| 20260905222700 | 90 | 11 | 0.0 | 1.0 | 0.00 | 0.22 | 0.22 | 68 | 1010.9 |
| 20260905222159 | 91 | 10 | 0.0 | 1.0 | 0.00 | 0.22 | 0.22 | 66 | 1010.9 |
| 20260905221655 | 91 | 355 | 2.0 | 2.0 | 0.00 | 0.22 | 0.22 | 66 | 1011.1 |
| 20260905221152 | 91 | 346 | 1.0 | 2.0 | 0.00 | 0.22 | 0.22 | 67 | 1010.8 |
| 20260905220647 | 91 | 353 | 2.0 | 3.0 | 0.00 | 0.22 | 0.22 | 64 | 1011.0 |
| 20260905220143 | 92 | 335 | 1.0 | 2.0 | 0.00 | 0.22 | 0.22 | 61 | 1011.0 |
| 20260905215643 | 92 | 329 | 1.0 | 2.0 | 0.00 | 0.22 | 0.22 | 63 | 1010.8 |
| 20260905215139 | 91 | 309 | 3.0 | 5.0 | 0.00 | 0.22 | 0.22 | 62 | 1011.0 |
| 20260905214634 | 91 | 349 | 2.0 | 5.0 | 0.00 | 0.22 | 0.22 | 65 | 1010.9 |
| 20260905214129 | 91 | 340 | 3.0 | 5.0 | 0.00 | 0.22 | 0.22 | 60 | 1011.2 |
| 20260905213625 | 92 | 344 | 4.0 | 3.0 | 0.00 | 0.22 | 0.22 | 62 | 1011.0 |
| 20260905213120 | 92 | 339 | 4.0 | 5.0 | 0.00 | 0.22 | 0.22 | 62 | 1011.0 |
| 20260905212615 | 92 | 263 | 3.0 | 3.0 | 0.00 | 0.22 | 0.22 | 60 | 1011.0 |
| 20260905212114 | 92 | 344 | 5.0 | 6.0 | 0.00 | 0.22 | 0.22 | 62 | 1011.1 |
| 20260905211609 | 92 | 327 | 4.0 | 5.0 | 0.00 | 0.22 | 0.22 | 60 | 1010.9 |
| 20260905211105 | 94 | 345 | 3.0 | 5.0 | 0.00 | 0.22 | 0.22 | 59 | 1010.9 |
| 20260905210601 | 95 | 270 | 2.0 | 2.0 | 0.00 | 0.22 | 0.22 | 55 | 1011.1 |
| 20260905210056 | 95 | 241 | 1.0 | 2.0 | 0.00 | 0.22 | 0.22 | 58 | 1011.0 |
| 20260905205555 | 94 | 274 | 1.0 | 1.0 | 0.00 | 0.22 | 0.22 | 58 | 1011.0 |
| 20260905205055 | 94 | 349 | 3.0 | 3.0 | 0.00 | 0.22 | 0.22 | 58 | 1011.2 |
| 20260905204549 | 93 | 268 | 4.0 | 7.0 | 0.00 | 0.22 | 0.22 | 57 | 1011.2 |
| 20260905204044 | 94 | 311 | 2.0 | 3.0 | 0.00 | 0.22 | 0.22 | 57 | 1011.1 |
| 20260905203544 | 92 | 324 | 1.0 | 2.0 | 0.00 | 0.22 | 0.22 | 58 | 1011.3 |
| 20260905203040 | 92 | 350 | 2.0 | 5.0 | 0.00 | 0.22 | 0.22 | 57 | 1011.4 |
| 20260905202535 | 94 | 340 | 3.0 | 5.0 | 0.00 | 0.22 | 0.22 | 59 | 1011.4 |
| 20260905202031 | 95 | 265 | 4.0 | 5.0 | 0.00 | 0.22 | 0.22 | 58 | 1011.4 |
| 20260905201526 | 93 | 317 | 0.0 | 2.0 | 0.00 | 0.22 | 0.22 | 58 | 1011.6 |
| 20260905201025 | 92 | 325 | 3.0 | 3.0 | 0.00 | 0.22 | 0.22 | 58 | 1011.6 |
| 20260905200521 | 94 | 261 | 2.0 | 5.0 | 0.00 | 0.22 | 0.22 | 56 | 1011.7 |
| 20260905200020 | 92 | 341 | 3.0 | 3.0 | 0.00 | 0.22 | 0.22 | 57 | 1011.7 |
| 20260905195514 | 93 | 340 | 3.0 | 2.0 | 0.00 | 0.22 | 0.22 | 56 | 1011.8 |
| 20260905195010 | 92 | 336 | 2.0 | 2.0 | 0.00 | 0.22 | 0.22 | 56 | 1012.0 |
| 20260905194504 | 93 | 343 | 3.0 | 5.0 | 0.00 | 0.22 | 0.22 | 57 | 1011.9 |
| 20260905194004 | 94 | 262 | 2.0 | 3.0 | 0.00 | 0.22 | 0.22 | 58 | 1012.1 |
| 20260905193458 | 93 | 322 | 1.0 | 2.0 | 0.00 | 0.22 | 0.22 | 52 | 1012.1 |
| 20260905192953 | 92 | 310 | 2.0 | 3.0 | 0.00 | 0.22 | 0.22 | 57 | 1012.0 |
| 20260905192448 | 93 | 307 | 3.0 | 3.0 | 0.00 | 0.22 | 0.22 | 58 | 1012.0 |
| 20260905191944 | 94 | 341 | 2.0 | 1.0 | 0.00 | 0.22 | 0.22 | 58 | 1012.3 |
| 20260905191438 | 93 | 227 | 1.0 | 3.0 | 0.00 | 0.22 | 0.22 | 55 | 1012.4 |
| 20260905190937 | 93 | 159 | 2.0 | 2.0 | 0.00 | 0.22 | 0.22 | 57 | 1012.3 |
| 20260905190435 | 94 | 290 | 1.0 | 3.0 | 0.00 | 0.22 | 0.22 | 56 | 1012.5 |
| 20260905185934 | 94 | 349 | 1.0 | 2.0 | 0.00 | 0.22 | 0.22 | 54 | 1012.6 |
| 20260905185430 | 92 | 348 | 1.0 | 2.0 | 0.00 | 0.22 | 0.22 | 57 | 1012.4 |
| 20260905184928 | 93 | 169 | 2.0 | 2.0 | 0.00 | 0.22 | 0.22 | 56 | 1012.6 |
| 20260905184423 | 93 | 94 | 1.0 | 1.0 | 0.00 | 0.22 | 0.22 | 56 | 1012.8 |
| 20260905183922 | 93 | 208 | 0.0 | 1.0 | 0.00 | 0.22 | 0.22 | 56 | 1012.6 |
| 20260905183416 | 92 | 266 | 2.0 | 3.0 | 0.00 | 0.22 | 0.22 | 57 | 1012.8 |
| 20260905182912 | 91 | 234 | 4.0 | 5.0 | 0.00 | 0.22 | 0.22 | 57 | 1012.9 |
| 20260905182411 | 92 | 221 | 2.0 | 2.0 | 0.00 | 0.22 | 0.22 | 56 | 1012.8 |
| 20260905181907 | 90 | 46 | 1.0 | 1.0 | 0.00 | 0.22 | 0.22 | 57 | 1013.1 |
| 20260905181407 | 89 | 181 | 2.0 | 5.0 | 0.00 | 0.22 | 0.22 | 61 | 1012.9 |
| 20260905180905 | 90 | 211 | 3.0 | 5.0 | 0.00 | 0.22 | 0.22 | 61 | 1013.3 |
| 20260905180401 | 90 | 240 | 3.0 | 5.0 | 0.00 | 0.22 | 0.22 | 56 | 1013.1 |
| 20260905175856 | 89 | 250 | 3.0 | 2.0 | 0.00 | 0.22 | 0.22 | 64 | 1013.3 |
| 20260905175355 | 89 | 285 | 4.0 | 5.0 | 0.00 | 0.22 | 0.22 | 59 | 1013.3 |
| 20260905174850 | 89 | 140 | 3.0 | 5.0 | 0.00 | 0.22 | 0.22 | 59 | 1013.3 |
| 20260905174346 | 90 | 221 | 3.0 | 3.0 | 0.00 | 0.22 | 0.22 | 59 | 1013.4 |
| 20260905173842 | 88 | 255 | 2.0 | 6.0 | 0.00 | 0.22 | 0.22 | 59 | 1013.5 |
| 20260905173337 | 89 | 200 | 3.0 | 3.0 | 0.00 | 0.22 | 0.22 | 60 | 1013.4 |
| 20260905172832 | 88 | 170 | 4.0 | 6.0 | 0.00 | 0.22 | 0.22 | 62 | 1013.2 |
| 20260905172330 | 89 | 250 | 3.0 | 5.0 | 0.00 | 0.22 | 0.22 | 59 | 1013.4 |
| 20260905171827 | 88 | 240 | 5.0 | 6.0 | 0.00 | 0.22 | 0.22 | 59 | 1013.4 |
| 20260905171323 | 87 | 143 | 4.0 | 6.0 | 0.00 | 0.22 | 0.22 | 57 | 1013.5 |
| 20260905170819 | 87 | 186 | 4.0 | 7.0 | 0.00 | 0.22 | 0.22 | 60 | 1013.6 |
| 20260905170315 | 87 | 187 | 4.0 | 6.0 | 0.00 | 0.22 | 0.22 | 60 | 1013.6 |
| 20260905165814 | 87 | 167 | 5.0 | 6.0 | 0.00 | 0.22 | 0.22 | 60 | 1013.6 |
| 20260905165310 | 88 | 218 | 3.0 | 6.0 | 0.00 | 0.22 | 0.22 | 65 | 1013.8 |
| 20260905164809 | 88 | 244 | 6.0 | 6.0 | 0.00 | 0.22 | 0.22 | 59 | 1013.9 |
| 20260905164304 | 86 | 155 | 3.0 | 5.0 | 0.00 | 0.22 | 0.22 | 58 | 1013.8 |
| 20260905163800 | 87 | 149 | 3.0 | 6.0 | 0.00 | 0.22 | 0.22 | 58 | 1014.1 |
| 20260905163256 | 86 | 120 | 5.0 | 7.0 | 0.00 | 0.22 | 0.22 | 61 | 1014.3 |
| 20260905162752 | 86 | 198 | 4.0 | 5.0 | 0.00 | 0.22 | 0.22 | 61 | 1014.3 |
| 20260905162251 | 86 | 104 | 2.0 | 3.0 | 0.00 | 0.22 | 0.22 | 62 | 1014.1 |
| 20260905161746 | 86 | 126 | 3.0 | 7.0 | 0.00 | 0.22 | 0.22 | 62 | 1014.3 |
| 20260905161245 | 85 | 114 | 5.0 | 8.0 | 0.00 | 0.22 | 0.22 | 63 | 1014.1 |
| 20260905160743 | 85 | 123 | 8.0 | 9.0 | 0.00 | 0.22 | 0.22 | 63 | 1014.0 |
| 20260905160237 | 85 | 119 | 6.0 | 9.0 | 0.00 | 0.22 | 0.22 | 65 | 1014.0 |
| 20260905155733 | 85 | 134 | 6.0 | 7.0 | 0.00 | 0.22 | 0.22 | 63 | 1013.9 |
| 20260905155231 | 85 | 107 | 5.0 | 7.0 | 0.00 | 0.22 | 0.22 | 62 | 1014.1 |
| 20260905154725 | 84 | 97 | 7.0 | 8.0 | 0.00 | 0.22 | 0.22 | 66 | 1014.2 |
| 20260905154222 | 84 | 94 | 4.0 | 7.0 | 0.00 | 0.22 | 0.22 | 67 | 1014.3 |
| 20260905153717 | 84 | 93 | 5.0 | 7.0 | 0.00 | 0.22 | 0.22 | 71 | 1014.3 |
| 20260905153213 | 83 | 95 | 4.0 | 8.0 | 0.00 | 0.22 | 0.22 | 67 | 1014.1 |
| 20260905152707 | 83 | 124 | 6.0 | 9.0 | 0.00 | 0.22 | 0.22 | 69 | 1014.1 |
| 20260905152202 | 82 | 138 | 7.0 | 8.0 | 0.00 | 0.22 | 0.22 | 70 | 1014.1 |
| 20260905151701 | 82 | 176 | 6.0 | 7.0 | 0.00 | 0.22 | 0.22 | 73 | 1014.1 |
| 20260905151157 | 81 | 112 | 4.0 | 6.0 | 0.00 | 0.22 | 0.22 | 73 | 1014.2 |
| 20260905150652 | 81 | 213 | 3.0 | 8.0 | 0.00 | 0.22 | 0.22 | 74 | 1014.3 |
| 20260905150151 | 80 | 101 | 2.0 | 6.0 | 0.00 | 0.22 | 0.22 | 76 | 1014.0 |
| 20260905145649 | 81 | 99 | 6.0 | 6.0 | 0.00 | 0.22 | 0.22 | 75 | 1014.3 |
| 20260905145149 | 81 | 122 | 2.0 | 3.0 | 0.00 | 0.22 | 0.22 | 77 | 1014.6 |
| 20260905144643 | 80 | 163 | 2.0 | 5.0 | 0.00 | 0.22 | 0.22 | 78 | 1014.6 |
| 20260905144142 | 80 | 93 | 3.0 | 5.0 | 0.00 | 0.22 | 0.22 | 80 | 1014.7 |
| 20260905143638 | 79 | 105 | 3.0 | 3.0 | 0.00 | 0.22 | 0.22 | 76 | 1014.7 |
| 20260905143137 | 79 | 73 | 1.0 | 6.0 | 0.00 | 0.22 | 0.22 | 78 | 1014.8 |
| 20260905142631 | 79 | 67 | 3.0 | 5.0 | 0.00 | 0.22 | 0.22 | 77 | 1014.9 |
| 20260905142130 | 78 | 101 | 5.0 | 6.0 | 0.00 | 0.22 | 0.22 | 78 | 1015.0 |
| 20260905141625 | 78 | 140 | 5.0 | 6.0 | 0.00 | 0.22 | 0.22 | 78 | 1014.9 |
| 20260905141121 | 78 | 107 | 6.0 | 7.0 | 0.00 | 0.22 | 0.22 | 78 | 1015.0 |
| 20260905140616 | 77 | 109 | 8.0 | 8.0 | 0.00 | 0.22 | 0.22 | 81 | 1014.9 |
| 20260905140115 | 77 | 123 | 7.0 | 7.0 | 0.00 | 0.22 | 0.22 | 82 | 1014.9 |
| 20260905135611 | 76 | 93 | 3.0 | 8.0 | 0.00 | 0.22 | 0.22 | 83 | 1014.9 |
| 20260905135106 | 76 | 98 | 3.0 | 7.0 | 0.00 | 0.22 | 0.22 | 84 | 1014.9 |
| 20260905134601 | 76 | 143 | 7.0 | 8.0 | 0.00 | 0.22 | 0.22 | 83 | 1015.2 |
| 20260905134059 | 75 | 122 | 8.0 | 9.0 | 0.00 | 0.22 | 0.22 | 83 | 1014.9 |
| 20260905133555 | 75 | 97 | 2.0 | 8.0 | 0.00 | 0.22 | 0.22 | 86 | 1015.0 |
| 20260905133054 | 75 | 103 | 7.0 | 10.0 | 0.00 | 0.22 | 0.22 | 87 | 1015.3 |
| 20260905132548 | 74 | 89 | 5.0 | 7.0 | 0.00 | 0.22 | 0.22 | 88 | 1015.3 |
| 20260905132043 | 72 | 74 | 2.0 | 6.0 | 0.00 | 0.22 | 0.22 | 93 | 1015.6 |
| 20260905131539 | 71 | 64 | 2.0 | 5.0 | 0.00 | 0.22 | 0.22 | 99 | 1015.7 |
| 20260905131034 | 70 | 105 | 5.0 | 7.0 | 0.00 | 0.22 | 0.22 | 99 | 1015.6 |
| 20260905130533 | 69 | 110 | 6.0 | 8.0 | 0.00 | 0.22 | 0.22 | 99 | 1015.6 |
| 20260905130029 | 69 | 133 | 7.0 | 9.0 | 0.00 | 0.22 | 0.22 | 99 | 1015.6 |
| 20260905125528 | 69 | 114 | 4.0 | 5.0 | 0.00 | 0.22 | 0.22 | 99 | 1015.7 |
| 20260905125024 | 69 | 100 | 7.0 | 11.0 | 0.00 | 0.22 | 0.22 | 99 | 1015.8 |
| 20260905124520 | 70 | 87 | 10.0 | 6.0 | 0.00 | 0.22 | 0.22 | 99 | 1015.6 |
| 20260905124015 | 70 | 84 | 3.0 | 3.0 | 0.00 | 0.22 | 0.22 | 99 | 1015.2 |
| 20260905123510 | 70 | 42 | 1.0 | 3.0 | 0.00 | 0.22 | 0.22 | 99 | 1015.2 |
| 20260905123007 | 70 | 23 | 1.0 | 2.0 | 0.00 | 0.22 | 0.22 | 99 | 1014.9 |
| 20260905122502 | 70 | 21 | 1.0 | 1.0 | 0.00 | 0.22 | 0.22 | 99 | 1015.0 |
| 20260905121956 | 70 | 41 | 1.0 | 2.0 | 0.00 | 0.22 | 0.22 | 99 | 1015.0 |
| 20260905121452 | 70 | 1 | 0.0 | 1.0 | 0.00 | 0.22 | 0.22 | 99 | 1015.2 |
| 20260905120950 | 69 | 88 | 1.0 | 2.0 | 0.00 | 0.22 | 0.22 | 99 | 1015.0 |
| 20260905120445 | 70 | 2 | 1.0 | 3.0 | 0.19 | 0.22 | 0.22 | 99 | 1015.3 |
| 20260905115940 | 69 | 154 | 2.0 | 2.0 | 0.19 | 0.22 | 0.22 | 99 | 1015.0 |
| 20260905115439 | 69 | 113 | 3.0 | 3.0 | 0.00 | 0.19 | 0.19 | 99 | 1014.7 |
| 20260905114929 | 70 | 73 | 1.0 | 2.0 | 0.00 | 0.19 | 0.19 | 99 | 1014.2 |
| 20260905114428 | 70 | 84 | 2.0 | 5.0 | 0.00 | 0.19 | 0.19 | 99 | 1014.1 |
| 20260905113922 | 70 | 83 | 1.0 | 3.0 | 0.00 | 0.19 | 0.19 | 99 | 1014.2 |
| 20260905113417 | 70 | 81 | 0.0 | 0.0 | 0.00 | 0.19 | 0.19 | 99 | 1014.2 |
| 20260905112913 | 69 | 64 | 0.0 | 2.0 | 0.00 | 0.19 | 0.19 | 99 | 1014.2 |
| 20260905112408 | 69 | 100 | 2.0 | 3.0 | 0.00 | 0.19 | 0.19 | 99 | 1014.0 |
| 20260905111902 | 69 | 78 | 1.0 | 2.0 | 0.00 | 0.19 | 0.19 | 99 | 1014.1 |
| 20260905111356 | 69 | 115 | 3.0 | 3.0 | 0.00 | 0.19 | 0.19 | 99 | 1013.9 |
| 20260905110856 | 69 | 42 | 0.0 | 2.0 | 0.00 | 0.19 | 0.19 | 99 | 1014.1 |
| 20260905110350 | 69 | 57 | 2.0 | 5.0 | 0.00 | 0.19 | 0.19 | 99 | 1014.1 |
| 20260905105845 | 69 | 115 | 4.0 | 3.0 | 0.00 | 0.19 | 0.19 | 99 | 1014.1 |
| 20260905105345 | 69 | 85 | 1.0 | 3.0 | 0.00 | 0.19 | 0.19 | 99 | 1014.1 |
| 20260905104839 | 69 | 44 | 2.0 | 3.0 | 0.00 | 0.19 | 0.19 | 99 | 1013.8 |
| 20260905104336 | 69 | 92 | 1.0 | 2.0 | 0.00 | 0.19 | 0.19 | 99 | 1013.8 |